Regional Weather Roundup
Issued by NWS Northern Indiana

Home | Current Version | Previous Version | Graphics & Text | Print | Product List | Glossary On
Versions: 1 2 3 4 5 6 7 8 9 10 11 12 13 14 15 16 17 18 19 20 21 22 23 24 25 26 27 28 29 30 31 32 33 34 35 36 37 38 39 40 41 42 43 44 45 46 47 48 49 50
109
ASUS43 KIWX 212100
RWRIWX

KIWX WEATHER ROUNDUP
NATIONAL WEATHER SERVICE NORTHERN INDIANA
400 PM EST SAT JAN 21 2017

NOTE: "FAIR" INDICATES FEW OR NO CLOUDS BELOW 12,000 FEET WITH NO
SIGNIFICANT WEATHER AND/OR OBSTRUCTIONS TO VISIBILITY.

* THESE STATIONS ARE NOT UNDER NWS QUALITY CONTROL. THEY ALSO MAY NOT
  REPORT WEATHER SUCH AS PRECIPITATION OR FOG.

INZ001>027-212200-
NORTHERN INDIANA

CITY           SKY/WX    TMP DP  RH WIND       PRES   REMARKS
GARY*          MOSUNNY   61  46  59 SW16      29.48F
SOUTH BEND     SUNNY     61  50  67 SW13      29.51F
ELKHART*       SUNNY     61  50  67 S12G17    29.50F
GOSHEN         SUNNY     61  50  67 S12       29.52F
FORT WAYNE     MOSUNNY   62  52  69 S12       29.56F

$$
INZ028>050-212200-
CENTRAL INDIANA

CITY           SKY/WX    TMP DP  RH WIND       PRES   REMARKS
LAFAYETTE      SUNNY     63  51  65 S9        29.53R
KOKOMO*        SUNNY     63  53  70 S10       29.55S
MUNCIE*        SUNNY     64  53  67 S10G22    29.57R
INDIANAPOLIS   MOSUNNY   66  52  60 SW13      29.56R

$$
MIZ043>046-050>051-056>058-064>065-071>073-077>080-212200-
SOUTHWEST LOWER MICHIGAN

CITY           SKY/WX    TMP DP  RH WIND       PRES   REMARKS
BATTLE CREEK   SUNNY     60  50  69 S13       29.52F
BENTON HARBOR  SUNNY     62  49  62 S13       29.49R
COLDWATER*     SUNNY     59  51  75 SE12G20   29.54F
HILLSDALE*     SUNNY     55  50  82 SE10      29.56F
HOLLAND        SUNNY     62  49  62 S10       29.49R
GRAND RAPIDS   MOSUNNY   60  47  61 SE14      29.48F
KALAMAZOO      SUNNY     60  47  61 S13G20    29.51F
STURGIS*       SUNNY     60  51  71 S12       29.52S
THREE RIVERS*  FAIR      60  50  70 S13       29.52S

$$
OHZ001>008-015>018-024>025-212200-
NORTHWEST OHIO

CITY           SKY/WX    TMP DP  RH WIND       PRES   REMARKS
DEFIANCE       MOSUNNY   59  50  72 S9        29.57F
FINDLAY        PTSUNNY   59  50  72 MISG      29.60S
TOLEDO EXPRESS CLOUDY    59  54  83 S6        29.59S
TOLEDO METCALF MOSUNNY   60  54  80 S8        29.61S
LIMA           CLOUDY    58  53  84 S9        29.60F

$$
AND FOR LAKE MICHIGAN COASTAL AND OPEN LAKE BUOY OBSERVATIONS

STATION/POSITION TEMP    WIND        PRES    VSBY  WAVE
                 AIR SEA DIR/SP/G                  HT/PER
                 (F)     (DEG/KT/KT) (MB)    (MI)  (FT/S)
CALUMET HARBOR    59     190/  9/ 13  997.6R
MICHIGAN CITY     60     160/ 14/ 17   N/A
BURNS HARBOR      59     190/ 18/ 23  998.6F

$$
&&




USA.gov is the U.S. government's official web portal to all federal, state and local government web resources and services.